Location: Aldenham
(51.6667°N, 0.3500°W)
Time: 02:05:59
(UTC+00:00)

Altair - Pass Details

Date: 25 February 2026
Orbit: 1502 x 1682 km, 47.2° (Epoch: 13 March)

Event Time Altitude Azimuth Distance (km) Brightness Sun altitude
Rises 06:11:19 0° 270° (W) 4,643 - -7.6°
Exits shadow 06:13:43 - 268° (W) 3,864 8.9 -7.2°
Reaches altitude 10° 06:14:19 10° 268° (W) 3,671 8.8 -7.1°
Maximum altitude 06:23:26 66° 189° (S) 1,657 7.7 -5.7°
Drops below altitude 10° 06:32:51 10° 110° (ESE) 3,784 11.4 -4.3°
Sets 06:36:00 0° 108° (ESE) 4,792 12.6 -3.8°
